Lid_Strength_Index
13 13 13 13 13 13 13 13 13 13 13 13 13 13 13 13 13 14 14 14 14 14 14 14 14 14 15 15 14 15 15 15 18 16 15 14 14 14 13 14 14 14 14
13 13 13 12 13 13 13 13 12 12 12 13 13 13 13 13 14 14 14 14 14 14 14 14 14 13 15 15 15 15 15 15 16 17 16 16 15 14 15 15 15 14 14
12 13 13 13 13 13 13 13 13 14 14 13 13 13 14 13 14 14 14 14 14 14 14 14 14 14 15 15 16 16 16 15 15 16 17 15 15 15 15 15 15 15 14
12 13 13 13 13 13 13 13 13 13 14 15 15 15 15 15 14 14 13 14 14 14 13 14 14 14 15 15 15 15 15 15 15 16 17 17 16 15 16 17 17 16 16
13 13 13 13 13 13 13 13 13 13 13 14 15 16 16 15 14 15 14 15 15 14 14 13 13 13 12 13 14 15 15 15 16 16 16 16 16 16 16 16 17 16 16
13 13 13 13 13 13 13 13 13 13 13 13 14 15 16 14 11 10 11 14 13 14 14 14 13 14 14 12 12 12 12 14 15 15 16 16 15 15 15 16 16 18 20
14 13 13 13 13 13 13 13 13 14 13 14 14 15 16 14 10 9 9 11 13 14 15 14 14 13 14 14 13 12 12 12 12 14 15 15 15 14 14 15 16 18 19
16 16 15 15 15 14 15 15 15 14 16 17 17 17 18 15 10 9 9 11 14 15 15 17 16 16 15 16 16 16 16 15 14 14 14 14 13 12 12 14 17 19 19
18 18 18 17 17 17 17 18 19 19 20 20 18 17 18 15 10 10 10 12 13 15 17 17 17 16 14 11 14 16 16 15 12 10 10 9 9 9 11 15 20 21 22
21 20 19 19 18 19 19 18 18 21 19 18 18 18 18 17 12 10 10 11 13 14 19 18 13 16 12 11 13 14 16 15 15 15 14 13 13 16 12 16 17 20 21
23 22 21 20 20 18 18 19 20 21 20 22 20 19 18 18 16 11 10 11 12 13 16 16 17 12 11 10 9 11 12 12 13 12 17 18 19 19 19 19 18 18 20
24 23 23 22 19 19 19 19 20 21 20 20 19 18 19 18 15 12 10 10 10 12 13 14 16 11 10 9 9 9 8 8 10 16 19 21 22 21 20 20 20 19 17
27 27 26 23 21 20 21 21 20 19 19 19 19 19 18 16 18 12 11 11 10 11 11 11 9 9 8 9 8 8 9 10 19 23 19 17 23 21 25 26 24 21 20
29 27 25 25 24 22 21 20 20 21 21 19 18 18 17 16 16 15 14 13 11 11 10 12 12 10 9 9 11 10 11 12 14 15 16 20 24 26 25 24 20 19 20
28 28 27 25 25 23 21 21 20 19 17 18 18 17 18 18 15 12 11 12 12 10 10 11 14 14 14 13 13 12 12 12 14 17 17 20 20 22 19 23 23 21 22
27 27 26 25 25 23 23 23 19 17 15 14 14 14 15 13 12 11 11 10 10 9 11 12 12 11 11 11 11 11 10 12 12 12 16 16 16 18 17 19 22 23 21
29 27 27 26 24 25 24 24 25 21 17 16 15 14 14 13 12 12 11 10 10 10 14 15 15 14 13 11 11 10 10 11 12 13 14 16 17 17 22 20 20 20 21
32 29 27 26 25 25 25 25 24 25 24 23 18 16 14 13 13 12 11 11 17 16 20 18 17 16 15 13 12 12 11 12 14 14 16 19 20 18 20 21 21 21 21
30 28 28 27 26 25 25 25 25 24 24 24 22 19 18 15 14 12 12 18 19 18 18 17 17 17 16 15 14 13 13 14 15 17 20 18 18 19 22 21 20 20 22
33 29 28 29 28 28 27 26 24 24 24 23 22 22 21 20 20 18 19 22 20 19 19 18 17 16 16 15 15 15 14 18 18 17 16 16 17 18 20 20 21 22 23
32 31 29 28 29 27 25 25 24 23 23 22 22 20 14 16 18 19 20 20 19 18 18 17 16 16 15 14 14 15 16 15 15 15 16 16 17 20 19 20 22 24 24
32 30 30 30 25 24 24 23 23 22 22 22 21 19 14 18 19 19 19 19 18 17 16 16 17 16 15 15 15 15 16 16 16 16 16 16 18 19 21 24 26 25 25
30 28 26 26 25 24 24 23 22 22 21 21 20 20 19 19 19 18 18 18 17 17 16 16 16 16 16 17 15 15 16 16 16 15 17 18 19 20 23 26 27 27 26
29 27 26 25 25 24 23 23 22 21 20 20 20 20 20 20 19 19 18 17 17 16 16 16 16 16 16 15 15 15 16 16 16 16 18 18 20 21 25 31 28 27 27
32 27 26 25 25 23 22 21 22 21 21 21 21 20 20 20 20 19 18 17 17 16 16 16 16 16 16 16 16 16 16 16 16 16 18 20 22 22 25 26 26 26 25
26 26 24 24 24 22 22 22 22 22 22 21 20 20 20 19 19 18 17 17 17 16 16 16 16 16 16 16 16 15 15 14 15 16 17 20 22 23 24 25 26 24 23